Home   Weather   Querétaro   Past weeks

Flag for Mexico Past Weather in Querétaro, Querétaro, Mexico — Yesterday and Last 2 Weeks

73 °F

Broken clouds.

Feels Like: 77 °F
Forecast: 53 / 74 °F
Wind: 12 mph from Southeast

Location: Queretaro - Qro.

Current Time: Oct 23, 2016 at 3:25:21 PM

Latest Report: Oct 23, 2016 at 2:50 PM

Visibility: 10 mi

Pressure: 30.34 "Hg (24.60 "Hg at 1817m altitude)

Humidity: 47%

Dew Point: 52 °F

Location of QuerétaroLocation

Past Weather in Querétaro — Graph


Querétaro Temperature Yesterday

Maximum temperature yesterday: 72 °F (at 2:45 PM)
Minimum temperature yesterday: 54 °F (at 7:45 AM)
Average temperature yesterday: 60 °F

High & Low Weather Summary for the Past Weeks

High81 °F (Oct 12, 3:45 PM)100% (Oct 8, 11:45 PM)30.45 "Hg (Oct 8, 11:45 PM)
Low48 °F (Oct 14, 7:45 AM)24% (Oct 19, 5:45 PM)30.12 "Hg (Oct 17, 5:45 PM)
Average63 °F71%30.33 "Hg
* Reported Oct 8 12:45 PM — Oct 23 12:45 PM, Querétaro, Weather by CustomWeather, © 2016

Note: Actual official high and low records may vary slightly from our data, if they occured in-between our weather recording intervals... More about our weather records


Querétaro Weather History for the Previous 24 Hours

Scroll right to see more
Time TempWeatherWind HumidityBarometerVisibility
12:45 PM
Sun, Oct 23
68 °FPartly sunny.15 mph56%30.42 "Hg10 mi
11:45 AM68 °FPartly sunny.9 mph60%30.44 "Hg10 mi
10:45 AM66 °FPartly sunny.14 mph64%30.44 "Hg10 mi
9:45 AM63 °FPartly sunny.9 mph73%30.44 "Hg8 mi
8:45 AM57 °FPartly sunny.6 mph94%30.43 "Hg8 mi
7:48 AM54 °FPartly sunny.6 mph100%30.41 "Hg8 mi
6:45 AM52 °FPartly cloudy.No wind100%30.40 "Hg7 mi
5:45 AM55 °FPassing clouds.6 mph94%30.39 "Hg7 mi
4:45 AM55 °FPassing clouds.5 mph94%30.38 "Hg7 mi
11:45 PM
Sat, Oct 22
55 °FPassing clouds.5 mph94%30.41 "Hg8 mi
10:48 PM57 °FPassing clouds.7 mph82%30.41 "Hg8 mi
9:48 PM57 °FPassing clouds.9 mph82%30.40 "Hg8 mi
8:48 PM59 °FPartly cloudy.12 mph82%30.37 "Hg8 mi
7:50 PM61 °FPartly cloudy.12 mph77%30.36 "Hg8 mi
6:50 PM64 °FBroken clouds.14 mph68%30.34 "Hg8 mi
5:48 PM68 °FMostly cloudy.17 mph60%30.32 "Hg8 mi
4:52 PM68 °FMostly cloudy.12 mph60%30.31 "Hg8 mi
3:50 PM68 °FPartly sunny.16 mph56%30.31 "Hg8 mi
Weather by CustomWeather, © 2016

See weather overviewHow to use our weather pages